Location: Chapel Hill
(35.9134°N, 79.0560°W)
Time: 04:52:54
(UTC-04:00)

ACS3 Solar Sail - Pass Details

Date: 25 June 2024
Orbit: 993 x 1022 km, 97.4° (Epoch: 23 July)

Event Time Altitude Azimuth Distance (km) Brightness Sun altitude
Exits shadow 22:30:42 30° 145° (SE) 1,697 5.5 -18.6°
Maximum altitude 22:33:49 64° 75° (ENE) 1,098 4.9 -19.0°
Drops below altitude 10° 22:39:57 10° 355° (N) 2,764 8.0 -19.8°
Sets 22:42:27 0° 353° (N) 3,715 8.8 -20.1°
